Flag for British Virgin Islands Weather past 2 weeks in Road Town, Tortola, British Virgin Islands

Now
88 °F

Partly sunny.


Feels Like: 98 °F
Forecast: 81 / 85 °F
Wind: 10 mph from Southeast

Location: Beef Island - Tortola

Current Time: Jul 28, 2015 at 1:50:20 PM

Latest Report: Jul 28, 2015 at 1:00 PM


Visibility: N/A

Pressure: 30.04 "Hg

Humidity: 66%

Dew point: 75 °F

Location of Road TownLocation

Historic Weather in Road Town — Graph

°F

Road Town temperature yesterday

Maximum temperature yesterday: 93 °F (at 2:00 PM)
Minimum temperature yesterday: 82 °F (at 7:00 AM)
Average temperature yesterday: 87 °F

Past Weeks' High & Low Weather Summary

 TemperatureHumidityPressure
High93 °F (Jul 15, 1:00 PM)100% (Jul 18, 12:00 PM)30.12 "Hg (Jul 18, 12:00 PM)
Low68 °F (Jul 18, 12:00 PM)56% (Jul 27, 2:00 PM)29.98 "Hg (Jul 21, 4:00 PM)
Average85 °F71%30.06 "Hg
* Reported Jul 13 12:00 Noon — Jul 28 12:00 Noon, Road Town, Weather by CustomWeather, © 2015

Note: Actual official high and low records may vary slightly from our data, if they occured in-between our weather recording intervals... More about our weather records

Advertising

Road Town weather history for previous 24 hours

 ConditionsComfort  
Time TempWeatherWind HumidityBarometerVisibility
12:00 PM
Tue, Jul 28
86 °FPartly sunny.10 mph70%30.07 "HgN/A
11:00 AM91 °FPartly sunny.15 mph59%30.07 "HgN/A
10:00 AM90 °FBroken clouds.14 mph67%30.07 "HgN/A
9:00 AM88 °FScattered clouds.12 mph70%30.07 "HgN/A
8:00 AM84 °FScattered clouds.9 mph74%30.07 "HgN/A
7:00 AM82 °FScattered clouds.9 mph74%30.04 "HgN/A
10:00 PM
Mon, Jul 27
82 °FPassing clouds.13 mph79%30.07 "HgN/A
9:00 PM82 °FPartly cloudy.10 mph79%30.04 "HgN/A
8:00 PM84 °FPartly cloudy.9 mph74%30.04 "HgN/A
7:00 PM84 °FPartly cloudy.9 mph74%30.04 "HgN/A
6:00 PM86 °FBroken clouds.10 mph70%30.04 "HgN/A
5:00 PM86 °FScattered clouds.9 mph70%30.01 "HgN/A
4:00 PM91 °FPassing clouds.15 mph56%30.01 "HgN/A
3:00 PM91 °FPassing clouds.13 mph56%30.04 "HgN/A
2:00 PM93 °FPassing clouds.12 mph56%30.04 "HgN/A
1:00 PM91 °FPassing clouds.17 mph59%30.07 "HgN/A
Weather by CustomWeather, © 2015

See weather overviewHow to use our weather pages